Powrót do katalogu

STARLINK-33884

AktywnyŁącznośćVLEO
NORAD 63770·PAYLOAD·🇺🇸 United States

Wystrzelony Apr 29, 2025 z Cape Canaveral Space Force Station

Loading…

Następne Przeloty (najbliższe 24 godziny)

TLE

ŚwieżeSource: CelesTrak SupGP

Epoka: Sep 15, 2026, 02:53 UTC

1 63770C 25089V   26258.12062500 -.00033220  00000+0 -12029-2 0  2581
2 63770  43.0013  55.1912 0001553 270.9554   3.7875 15.27602979    14

Śledź STARLINK-33884 w czasie rzeczywistym z AllMySat

Download on the App Store